Home   Weather   Fukuoka   Past weeks

Flag for Japan Past Weather in Fukuoka, Japan — Yesterday and Last 2 Weeks

72 °F

Broken clouds.

Feels Like: 75 °F
Forecast: 68 / 73 °F
Wind: 9 mph from Northwest

Location: Fukuoka Airport

Current Time: Oct 26, 2016 at 4:44:30 PM

Latest Report: Oct 26, 2016 at 4:00 PM

Visibility: N/A

Pressure: 29.98 "Hg

Humidity: 69%

Dew Point: 61 °F

Location of FukuokaLocation

Past Weather in Fukuoka — Graph


Fukuoka Temperature Yesterday

Maximum temperature yesterday: 75 °F (at 1:30 PM)
Minimum temperature yesterday: 59 °F (at 1:30 AM)
Average temperature yesterday: 69 °F

High & Low Weather Summary for the Past Weeks

High79 °F (Oct 17, 11:00 AM)94% (Oct 17, 2:30 AM)30.24 "Hg (Oct 17, 2:30 AM)
Low55 °F (Oct 15, 2:30 AM)31% (Oct 13, 1:30 PM)29.77 "Hg (Oct 22, 2:00 PM)
Average68 °F69%30.02 "Hg
* Reported Oct 11 3:00 PM — Oct 26 3:30 PM, Fukuoka, Weather by CustomWeather, © 2016

Note: Actual official high and low records may vary slightly from our data, if they occured in-between our weather recording intervals... More about our weather records


Fukuoka Weather History for the Previous 24 Hours

Scroll right to see more
Time TempWeatherWind HumidityBarometerVisibility
3:30 PM
Wed, Oct 26
72 °FBroken clouds.9 mph73%29.98 "HgN/A
3:00 PM72 °FBroken clouds.8 mph73%29.98 "HgN/A
2:30 PM72 °FSprinkles. Broken clouds.5 mph73%29.98 "HgN/A
2:00 PM72 °FSprinkles. Broken clouds.8 mph78%29.98 "Hg4 mi
1:30 PM72 °FSprinkles. Partly sunny.7 mph73%29.98 "HgN/A
1:00 PM73 °FSprinkles. Partly sunny.7 mph69%29.98 "HgN/A
12:30 PM73 °FSprinkles. Broken clouds.7 mph69%29.98 "HgN/A
12:00 PM75 °FBroken clouds.3 mph65%29.98 "HgN/A
11:30 AM73 °FBroken clouds.5 mph69%30.01 "HgN/A
11:00 AM73 °FBroken clouds.3 mph69%30.01 "HgN/A
10:30 AM73 °FBroken clouds.3 mph69%30.01 "HgN/A
10:00 AM73 °FBroken clouds.3 mph74%30.01 "HgN/A
9:30 AM73 °FBroken clouds.2 mph69%30.01 "HgN/A
9:00 AM72 °FBroken clouds.3 mph78%30.01 "HgN/A
8:30 AM72 °FPartly sunny.3 mph78%30.01 "HgN/A
8:00 AM70 °FBroken clouds.1 mph78%30.01 "HgN/A
7:30 AM70 °FBroken clouds.2 mph83%30.01 "HgN/A
7:00 AM70 °FBroken clouds.1 mph83%30.01 "HgN/A
6:30 AM70 °FPartly cloudy.1 mph83%29.98 "HgN/A
6:00 AM70 °FPassing clouds.1 mph83%29.98 "HgN/A
5:30 AM70 °FPassing clouds.No wind83%29.98 "HgN/A
5:00 AM70 °FPassing clouds.1 mph83%29.98 "HgN/A
4:30 AM70 °FPassing clouds.2 mph83%29.98 "HgN/A
4:00 AM70 °FSprinkles. Passing clouds.No wind83%29.95 "HgN/A
3:30 AM70 °FPassing clouds.No wind83%29.95 "HgN/A
3:00 AM70 °FPassing clouds.2 mph83%29.95 "HgN/A
2:30 AM70 °FPassing clouds.2 mph83%29.95 "HgN/A
2:00 AM70 °FPassing clouds.3 mph83%29.95 "HgN/A
1:30 AM72 °FPassing clouds.3 mph78%29.98 "HgN/A
1:00 AM72 °FPassing clouds.3 mph78%29.98 "HgN/A
12:30 AM72 °FPassing clouds.5 mph78%29.95 "HgN/A
12:00 AM72 °FPassing clouds.6 mph78%29.95 "HgN/A
11:30 PM
Tue, Oct 25
72 °FPassing clouds.6 mph78%29.95 "HgN/A
11:00 PM72 °FPassing clouds.6 mph83%29.98 "HgN/A
10:30 PM72 °FSprinkles. Passing clouds.6 mph83%29.98 "HgN/A
10:00 PM72 °FSprinkles. Passing clouds.5 mph83%29.95 "HgN/A
9:30 PM73 °FLight rain. Passing clouds.3 mph78%29.95 "HgN/A
9:00 PM72 °FLight rain. Passing clouds.6 mph83%29.92 "HgN/A
8:30 PM72 °FPartly cloudy.9 mph83%29.92 "HgN/A
8:00 PM72 °FPassing clouds.9 mph83%29.92 "HgN/A
7:30 PM72 °FPartly cloudy.7 mph78%29.92 "HgN/A
7:00 PM72 °FPassing clouds.9 mph78%29.89 "HgN/A
6:30 PM72 °FPassing clouds.12 mph78%29.89 "HgN/A
6:00 PM73 °FPassing clouds.9 mph74%29.89 "HgN/A
5:30 PM72 °FPartly sunny.9 mph73%29.89 "HgN/A
5:00 PM73 °FPartly sunny.12 mph69%29.86 "HgN/A
4:30 PM73 °FBroken clouds.10 mph69%29.86 "HgN/A
4:00 PM73 °FBroken clouds.14 mph69%29.86 "HgN/A
Weather by CustomWeather, © 2016

See weather overviewHow to use our weather pages